Погода в Чильпансинго-де-лос-Браво

Мексика     17°33′07″N   99°30′10″W
В апреле 2022 года жителям России запретили посещать сайт meteo.paraplan.net по решению Генеральной прокуратуры. Аудитория сайта уменьшилась в 10 раз. Владельцы сайта не видят смысла в поддержке погодного сервера в таких условиях. Сайт будет закрыт в октябре.
темп.,
°C
ветер,
м/с
пор.,
м/с
влажн.,
%
обл.,
%
осадки,
мм/ч
давл.,
гПа
погр.,
м
30 сентября, пт
пт3001:00+15с11918 2.1 101615
04:00+14с229374 0.0 101531
07:00+14с229454 0.0 101543
10:00+19с238093 0.0 1015388
13:00+23св116455 0.1 10131299
16:00+21ююз118158 2.1 1010489
19:00+18ююз119565 3.8 101176
22:00+17ююз229983 1.6 1013139
1 октября, сб
сб101:00+16ю229959 1.9 101497
04:00+16юв119722 0.3 101325
07:00+14ссв11966 0.3 101312
10:00+19в00857 0.0 1014432
13:00+20ююв218699 2.6 1013675
16:00+19ю229075 2.8 1011606
19:00+17ююз229790 3.7 1012151
22:00+15ююз229898 0.1 1015105
2 октября, вс
вс201:00+15ю229733 0.1 101664
04:00+15ююз1195100 0.0 101425
07:00+15ссв009475 0.0 101511
10:00+19вюв0081100 0.0 1016445
13:00+21ю2280100 1.0 10151043
16:00+19ююз229094 2.8 1013616
19:00+17ююз2296100 3.3 1014179
22:00+15ююз229874 0.1 101878
3 октября, пн
пн301:00+15ююз229971 0.2 1018102
04:00+14юз119888 0.0 101658
07:00+14с119592 0.0 101713
10:00+19ссв118114 0.0 1018382
13:00+23ююв116749 0.2 10151249
16:00+19ю229058 2.3 1014421
19:00+18ю229746 4.3 1015127
22:00+16ююз129848 1.3 1017108
4 октября, вт
вт401:00+15ююз119827 1.4 101735
04:00+14ююз119847 0.0 101622
07:00+14с119595 0.0 101622
10:00+19ссв008118 0.0 1017329
13:00+21ю227770 1.3 1015968
16:00+19ююз338895 3.1 1013723
19:00+17ююз239722 4.6 1014183
22:00+15ююз129946 0.1 101747